www.pogodaiklimat.ru

Погода и климат >> Архив погоды >> Индонезия >> Сурабая Геданган


ПОГОДА в Сурабая Геданган

  • Прогноз погоды в Сурабая Геданган
  • Монитор погоды в Сурабая Геданган

АРХИВ ПОГОДЫ в Сурабая Геданган

Время (UTC), дата Ветер
(напр.,м/с)
 
Видим.   Явления Облачность Т
(С)
Тd
(С)
f
(%)
Тe
(С)
Тes
(С)
Комфортность P
(гПа)
Po
(гПа)
Тmin
(С)
Tmax
(С)
R
(мм)
R24
(мм)
S
(см)
15 17.04 СВ 1 10 км 3/0
[Ci fib]
+28.4 +25.7 85 +42 +42 опасность
перегрева
1011.7 1011.3
18 17.04 штиль 0 9000 м 3/3 600 м
[Cu hum Ci fib]
+28.0 +25.9 88 +42 +42 опасность
перегрева
1010.0 1009.6
21 17.04 В 3 8000 м в посл. час дождь 6/5
[Cu Sc As trans Ci fib]
+27.4 +25.5 89 +40 +40 очень
душно
1009.9 1009.6 1
00 18.04 В 3 10 км 4/1 600 м
[Cu hum Ci fib]
+27.6 +26.0 91 +41 +44 опасность
перегрева
1010.7 1010.4 +27.0 1
03 18.04 ЮВ 2 12 км 5/3 600 м
[Cu hum Ci fib]
+32.6 +26.5 70 +49 +60 опасность
перегрева
1011.6 1011.2
06 18.04 В 4 12 км 4/3 600 м
[Cu med, cong Ci fib]
+34.6 +25.3 59 +49 +57 опасность
перегрева
1008.8 1008.5
09 18.04 В 1 11 км 5/4 600 м
[Cu med, cong Ci fib]
+32.4 +25.9 69 +48 +50 опасность
перегрева
1007.6 1007.2
12 18.04 З 1 9000 м 4/3 600 м
[Cu med, cong Ci fib]
+30.7 +26.3 77 +46 +46 опасность
перегрева
1009.5 1009.1 +35.2
15 18.04 СВ 1 8000 м 4/3 600 м
[Cu med, cong Ci fib]
+29.4 +26.1 82 +44 +44 опасность
перегрева
1010.7 1010.3
18 18.04 В 3 7000 м 8/4 570 м
[Cb cap Ac As Ci fib]
+28.5 +25.3 83 +42 +42 опасность
перегрева
1009.7 1009.3
21 18.04 СВ 2 8000 м 5/3 600 м
[Cu med, cong Ac As Ci fib]
+28.2 +25.0 83 +41 +41 опасность
перегрева
1008.2 1007.9
00 19.04 ЮВ 4 10 км 4/4 600 м
[Cu med, cong Ci fib]
+28.6 +25.5 83 +42 +43 опасность
перегрева
1009.5 1009.2 +27.3
03 19.04 ЮВ 6 12 км 4/3 600 м
[Cu hum Ci fib]
+32.9 +26.2 68 +49 +53 опасность
перегрева
1009.8 1009.5
06 19.04 ЮВ 8 12 км 4/3 600 м
[Cu med, cong Ci fib]
+34.4 +25.2 59 +48 +51 опасность
перегрева
1007.5 1007.2
09 19.04 ЮВ 3 11 км 3/1 600 м
[Cu hum Ci fib]
+33.0 +25.6 65 +48 +49 опасность
перегрева
1005.9 1005.5
12 19.04 В 4 9000 м 4/3 600 м
[Cu hum Ac trans Ci fib]
+30.2 +25.1 74 +44 +44 опасность
перегрева
1008.4 1008.0 +34.5
15 19.04 В 2 9000 м 3/1 600 м
[Cu hum Ci fib]
+29.4 +25.1 78 +43 +43 опасность
перегрева
1010.5 1010.1
18 19.04 В 2 9000 м 4/3 600 м
[Cu hum Ci fib]
+28.6 +25.1 81 +41 +41 опасность
перегрева
1008.9 1008.6
21 19.04 Ю 2 9000 м 3/0 600 м
[Ci fib]
+28.0 +24.8 83 +40 +40 очень
душно
1008.6 1008.2
00 20.04 ЮВ 1 10 км 4/1 600 м
[Cu hum Ci fib]
+27.4 +24.4 84 +39 +41 очень
душно
1009.4 1009.0 +27.2
03 20.04 Ю 6 12 км 6/1 600 м
[Cu hum Ac trans Ci sp]
+33.6 +23.8 57 +45 +50 опасность
перегрева
1009.8 1009.5
06 20.04 В 3 12 км 9/3 600 м
[Cu hum As op Ci sp]
+33.6 +24.2 58 +46 +51 опасность
перегрева
1007.5 1007.1
09 20.04 В 3 12 км 8/1 600 м
[Cu med, cong Ci fib]
+33.1 +25.1 63 +47 +49 опасность
перегрева
1006.4 1006.1
12 20.04 ЮВ 2 8000 м 5/3 600 м
[Cu hum Ac trans]
+30.9 +25.7 74 +46 +46 опасность
перегрева
1008.8 1008.4 +34.6
15 20.04 В 4 8000 м 6/1 570 м
[Cb cap As trans]
+29.5 +25.2 78 +43 +43 опасность
перегрева
1010.1 1009.8
18 20.04 В 2 8000 м 8/0
[As trans Cs]
+28.4 +24.9 81 +41 +41 опасность
перегрева
1009.1 1008.8
21 20.04 ЮВ 2 8000 м 8/1 600 м
[Cu hum Ci fib]
+28.1 +25.1 84 +41 +41 опасность
перегрева
1007.4 1007.1
00 21.04 ЮВ 2 9000 м 6/0
[Ac trans Ci fib]
+28.6 +24.8 80 +41 +43 опасность
перегрева
1009.1 1008.7 +27.2
03 21.04 ЮВ 4 11 км 5/3 600 м
[Cu med, cong Ac trans Ci fib]
+32.9 +25.6 66 +48 +55 опасность
перегрева
1009.3 1008.9
06 21.04 ЮВ 5 12 км ясно +34.2 +25.3 60 +48 +57 опасность
перегрева
1006.7 1006.3
09 21.04 В 3 11 км 6/4 600 м
[Cu med, cong As trans Ci fib]
+31.8 +25.4 69 +46 +47 опасность
перегрева
1008.7 1005.3
12 21.04 В 4 9000 м 4/1 600 м
[Cu hum Ci fib]
+29.8 +25.5 78 +44 +44 опасность
перегрева
1007.7 1007.3 +34.5
15 21.04 ЮВ 2 9000 м 3/1 600 м
[Cu hum Ci fib]
+28.8 +25.6 83 +43 +43 опасность
перегрева
1008.8 1008.5
18 21.04 СВ 2 9000 м 3/0
[Ci fib]
+28.2 +25.5 85 +41 +41 опасность
перегрева
1007.7 1007.3
21 21.04 ЮВ 2 9000 м 6/4 600 м
[Cu med, cong As trans Ci fib]
+28.2 +25.0 83 +41 +41 опасность
перегрева
1007.4 1007.1
00 22.04 ЮВ 2 9000 м 6/4 600 м
[Cu hum As trans Ci fib]
+29.1 +25.5 81 +43 +44 опасность
перегрева
1008.0 1007.6 +27.8
03 22.04 ЮВ 5 11 км 3/3 600 м
[Cu hum Ci fib]
+33.3 +25.6 64 +48 +54 опасность
перегрева
1008.4 1008.1
06 22.04 ЮВ 4 12 км 5/4 600 м
[Cb cap Ci fib]
+34.7 +25.3 58 +49 +56 опасность
перегрева
1006.3 1005.9
09 22.04 ЮВ 3 10 км 10/5 600 м
[Cb cap As op]
+31.8 +24.5 65 +44 +44 опасность
перегрева
1006.2 1005.8
12 22.04 В 3 8000 м 5/0
[As op Ci fib]
+30.2 +25.1 74 +44 +44 опасность
перегрева
1007.7 1007.3 +34.9
15 22.04 ЮВ 3 8000 м ясно +29.2 +25.7 81 +43 +43 опасность
перегрева
1009.4 1009.0
18 22.04 В 4 8000 м 1/1 600 м
[Cu hum]
+28.7 +25.6 83 +42 +42 опасность
перегрева
1008.2 1007.8
21 22.04 ЮВ 2 8000 м 4/3 600 м
[Cu hum Ci fib]
+28.2 +25.7 86 +42 +42 опасность
перегрева
1007.3 1006.9
00 23.04 Ю 1 9000 м 5/3 600 м
[Cu hum Ci fib]
+27.8 +25.2 86 +40 +43 очень
душно
1008.3 1007.9 +27.3
03 23.04 ЮВ 4 12 км 3/3 600 м
[Cu hum Ci fib]
+33.3 +25.0 62 +47 +56 опасность
перегрева
1008.6 1008.2
06 23.04 Ю 6 12 км 1/1 600 м
[Cu hum]
+34.5 +24.1 55 +47 +52 опасность
перегрева
1007.1 1006.8
09 23.04 ЮВ 5 11 км 1/1 600 м
[Cu hum]
+33.4 +24.7 60 +46 +47 опасность
перегрева
1006.0 1005.6
12 23.04 ЮВ 3 9000 м ясно +30.3 +24.6 72 +43 +43 опасность
перегрева
1008.6 1008.2 +35.4
15 23.04 ЮВ 2 9000 м 1/0
[Ci fib]
+29.3 +25.1 78 +42 +42 опасность
перегрева
1009.6 1009.3
18 23.04 ЮВ 1 8000 м ясно +28.4 +25.2 83 +41 +41 опасность
перегрева
1008.9 1008.6
21 23.04 В 1 8000 м 1/0
[Ci fib]
+27.7 +24.6 83 +39 +39 очень
душно
1008.4 1008.0
00 24.04 З 1 10 км 3/1 600 м
[Cu hum Ci fib]
+27.4 +24.7 85 +39 +42 очень
душно
1009.8 1009.4 +26.8
03 24.04 ЮВ 4 12 км 3/0
[Ci fib]
+33.0 +25.3 64 +47 +58 опасность
перегрева
1010.5 1010.2
06 24.04 ЮВ 5 12 км 1/1 600 м
[]
+35.4 +25.0 55 +49 +56 опасность
перегрева
1008.0 1007.6
09 24.04 СВ 2 12 км 5/4 600 м
[Cu hum Ci fib]
+33.2 +26.1 66 +49 +50 опасность
перегрева
1007.3 1006.9

 

Местоположение метеостанции Сурабая Геданган (Индонезия): широта -7.22 долгота 113.71 высота над уровнем моря 113 м.

В архиве по умолчанию представлена погода в Сурабая Геданган за последнюю неделю. Архивные данные за месяц целиком и за предыдущие месяцы, начиная с января 2011 года, Вы можете получить, выбрав интересующий диапазон дат из раскрывающегося списка и нажав кнопку "Ввод!".


*Определитесь, кто Вы:
робот инопланетянин человек

Внимание! Время в таблицах - всемирное. Для получения местного времени необходимо прибавить поправку, которая равна 7 ч.

Смотрите также архив погоды в соседних городах и на ближайших метеорологических станциях:

Погода в Калиянджете (Индонезия) (33 км)
Погода в Аэропорту Джуанда (Индонезия) (106 км)
Погода в Сурабая Перак (Индонезия) (110 км)
Погода в Банюванги (Индонезия) (134 км)
Погода в Сангкапуре (Индонезия) (194 км)
Погода в Денпасаре (Индонезия) (233 км)
Погода в Матараме (Индонезия) (297 км)
Погода в Семаранге (Индонезия) (365 км)
Погода в Аэропорту Ахмад Яни (Индонезия) (369 км)
Погода в Сумбава-Бесаре (Индонезия) (431 км)

Пояснения к столбцам:

Ветер - указаны скорость ветра в м/с - средняя за 10 мин, порывы в срок и между сроками (в фигурных скобках) и направление, откуда дует ветер: С - северный, СВ - северо-восточный, В - восточный, ЮВ - юго-восточный, Ю - южный, ЮЗ - юго-западный, З - западный, СЗ - северо-западный.
Видимость - горизонтальная дальность видимости в метрах или километрах. При видимости от 1 до 10 км при отсутствии осадков обычно наблюдается дымка, при ухудшении видимости до 1 км и менее - туман. В сухую погоду видимость может ухудшаться дымом, пылью или мглою.
Явления - указаны атмосферные явления, наблюдавшиеся в срок или в последний час перед сроком; фигурными скобками обозначены явления, наблюдавшиеся между сроками (за 1-3 часа до срока); квадратными скобками обозначены град или гололедные отложения с указанием их диаметра в мм.
Облачность - указаны через наклонную черту общая и нижняя облачность в баллах и высота нижней границы облаков в метрах; квадратными скобками обозначены формы облаков: Ci - перистые, Cs - перисто-слоистые, Cc - перисто-кучевые, Ac - высококучевые, As - высокослоистые, Sc - слоисто-кучевые, Ns - слоисто-дождевые, Cu - кучевые, Cb - кучево-дождевые. Подробнее классификацию облаков см. в Атласе облаков (PDF).
T - Температура воздуха - температура, измеренная на высоте 2 м над землей.
Td - Температура точки росы - температура, при понижении до которой содержащийся в воздухе водяной пар достигнет насыщения.
f - Относительная влажность воздуха - влажноcть воздуха, измеренная на высоте 2 м над землей.
Te - Эффективная температура - температура, которую ощущает одетый по сезону человек в тени. Характеристика душности погоды. При расчете учитывается влияние влажности воздуха и скорости ветра на теплоощущения человека.
Tes - Эффективная температура на солнце - температура, которую ощущает человек, с поправкой на солнечный нагрев. Характеристика знойности погоды. Зависит от высоты солнца над горизонтом, облачности и скорости ветра. Ночью, в пасмурную погоду, а также при ветре 12 м/с и более поправка равна нулю.
P - Атмосферное давление - приведенное к уровню моря атмосферное давление.
Po - Атмосферное давление - измеренное на уровне метеостанции атмосферное давление.
Tmin - Минимальная температура - минимум температуры воздуха на высоте 2 м над землей.
Tmax - Максимальная температура - максимум температуры воздуха на высоте 2 м над землей.
R - Количество осадков - Количество выпавших осадков за период времени, мм. При наведении курсора мыши на число - период времени, за который выпало указанное количество осадков.
R24 - Количество осадков - Количество выпавших осадков за 24 часа, мм.
S - Снежный покров - Высота снежного покрова, см. При наведении курсора мыши на число - состояние снежного покрова и степень покрытия местности в баллах.